This is the latest recevied weather packets stored in our database for station/object DC0VZ-6. If no packets are shown the sender has not sent any weather packets the latest 10 day(s).
| Time | Temp. | Humidity | Pressure | Rain* | Wind** | Luminosity | Snow |
|---|---|---|---|---|---|---|---|
| 1777643771 | 25.56° C | 5% | 993.2 hPa | 0 mm | - | - | - |
| 1777643171 | 25.56° C | 5% | 993.2 hPa | 0 mm | - | - | - |
| 1777642571 | 26.11° C | 5% | 993.3 hPa | 0 mm | - | - | - |
| 1777641971 | 25.56° C | 5% | 993.3 hPa | 0 mm | - | - | - |
| 1777641371 | 25.56° C | 5% | 993.5 hPa | 0 mm | - | - | - |
| 1777640771 | 25° C | 5% | 993.5 hPa | 0 mm | - | - | - |
| 1777640170 | 25° C | 5% | 993.6 hPa | 0 mm | - | - | - |
| 1777639570 | 25.56° C | 5% | 993.6 hPa | 0 mm | - | - | - |
| 1777638970 | 25° C | 5% | 993.4 hPa | 0 mm | - | - | - |
| 1777638370 | 25.56° C | 5% | 993.4 hPa | 0 mm | - | - | - |
| 1777637770 | 26.67° C | 5% | 993.6 hPa | 0 mm | - | - | - |
| 1777637170 | 26.11° C | 5% | 993.6 hPa | 0 mm | - | - | - |
| 1777636570 | 25.56° C | 5% | 993.8 hPa | 0 mm | - | - | - |
| 1777635970 | 25.56° C | 5% | 993.8 hPa | 0 mm | - | - | - |
| 1777635370 | 25.56° C | 5% | 993.9 hPa | 0 mm | - | - | - |
| 1777634770 | 25° C | 5% | 993.9 hPa | 0 mm | - | - | - |
| 1777634170 | 25° C | 5% | 994.1 hPa | 0 mm | - | - | - |
| 1777633570 | 23.89° C | 5% | 994.1 hPa | 0 mm | - | - | - |
| 1777632969 | 23.89° C | 5% | 994.2 hPa | 0 mm | - | - | - |
| 1777632369 | 23.89° C | 5% | 994.2 hPa | 0 mm | - | - | - |
| 1777631769 | 22.78° C | 5% | 994.1 hPa | 0 mm | - | - | - |
| 1777631175 | 23.33° C | 5% | 994.1 hPa | 0 mm | - | - | - |
| 1777630574 | 23.89° C | 5% | 994.4 hPa | 0 mm | - | - | - |
| 1777629974 | 21.67° C | 5% | 994.4 hPa | 0 mm | - | - | - |
| 1777629374 | 22.22° C | 5% | 994.3 hPa | 0 mm | - | - | - |
* Rain latest hour (hover to see other rain measurements)
** Current wind speed in m/s (hover to see current wind gust speed)